Regional Weather Roundup
Issued by NWS

Home | Current Version | Previous Version | Text Only | Print | Product List | Glossary Off
Versions: 1 2 3 4 5 6 7 8 9 10 11 12 13 14 15 16 17 18 19 20 21 22 23 24 25 26 27 28 29 30 31 32 33 34 35 36 37 38 39 40 41 42 43 44 45 46 47 48 49 50

000
ASUS43 KOAX 310502
RWRNE

WEATHER ROUNDUP FOR NEBRASKA
NATIONAL WEATHER SERVICE OMAHA NE
1200 AM CDT WED AUG 31 2016

NOTES: SATELLITE DATA IS BEING USED TO AUGMENT CLOUD COVER ABOVE
       12000 FEET.
       "FAIR" INDICATES FEW OR NO CLOUDS BELOW 12,000 FEET WITH NO
       SIGNIFICANT WEATHER AND/OR OBSTRUCTIONS TO VISIBILITY.

  * THESE STATIONS DO NOT REPORT WEATHER SUCH AS RAIN...SNOW OR FOG.

NEZ001>004-019>022-054>056-310600-
NEBRASKA PANHANDLE

CITY           SKY/WX    TMP DP  RH WIND       PRES   REMARKS
SCOTTSBLUFF    CLEAR     63  57  81 E7        30.27R
ALLIANCE       CLEAR     60  58  92 SE5       30.27R
CHADRON        CLEAR     70  55  59 S12       30.22R
SIDNEY         PTCLDY    60  58  92 S6        30.31R
$$

NEZ057>060-069>072-079>082-310600-
SOUTHWEST NEBRASKA

CITY           SKY/WX    TMP DP  RH WIND       PRES   REMARKS
NORTH PLATTE   CLOUDY    66  64  93 E3        30.23F
IMPERIAL       CLOUDY    64  62  93 MISG      30.25S
LEXINGTON      LGT RAIN  69  66  90 CALM      30.23S
MCCOOK         CLOUDY    68  65  90 NE5       30.22F
OGALLALA       PTCLDY    64  61  90 CALM      30.25F
$$

NEZ005>010-023>029-035>040-094-310600-
NORTH CENTRAL NEBRASKA

CITY           SKY/WX    TMP DP  RH WIND       PRES   REMARKS
VALENTINE      CLEAR     68  62  81 SE7       30.22R
AINSWORTH      CLEAR     67  64  90 SE5       30.23S
BROKEN BOW     CLEAR     60  60 100 N3        30.22F
O`NEILL        PTCLDY    69  66  90 SE3       30.21F
ORD            CLOUDY    65  62  90 CALM      30.20F
THEDFORD       PTCLDY    64  62  91 S3        30.25S
$$

NEZ041-046>049-061>064-073>077-083>087-310600-
SOUTH CENTRAL NEBRASKA

CITY           SKY/WX    TMP DP  RH WIND       PRES   REMARKS
GRAND ISLAND   CLOUDY    69  68  96 CALM      30.21F
AURORA         CLOUDY    67  67 100 CALM      30.20S FOG
HASTINGS       CLOUDY    69  67  93 E3        30.21F
HEBRON         CLOUDY    69  69  97 CALM      30.18S FOG
HOLDREGE       CLOUDY    67  65  93 CALM      30.23S
KEARNEY *      CLOUDY    68  66  94 CALM      30.21S
YORK           CLOUDY    66  66 100 CALM      30.19F
$$

NEZ011>018-030>034-042>045-310600-
NORTHEAST NEBRASKA

CITY           SKY/WX    TMP DP  RH WIND       PRES   REMARKS
NORFOLK        MOCLDY    66  64  93 CALM      30.19F
ALBION         PTCLDY    66  64  93 CALM      30.21S FOG
BLAIR          CLOUDY    72  68  89 N5        30.17S
FREMONT        MOCLDY    69  68  98 CALM      30.18S
TEKAMAH        CLOUDY    68  66  93 N3        30.16F
WAYNE          CLOUDY    66  65  98 CALM      30.20S
$$

NEZ050>053-065>068-078-088>093-310600-
SOUTHEAST NEBRASKA

CITY           SKY/WX    TMP DP  RH WIND       PRES   REMARKS
LINCOLN        CLOUDY    71  69  93 CALM      30.18S
OMAHA EPPLEY   CLOUDY    73  70  90 NW3       30.16S
BEATRICE       CLOUDY    71  70  97 CALM      30.17F FOG
FALLS CITY     CLOUDY    73  71  93 N3        30.14S
NEBRASKA CITY  DRIZZLE   72  72 100 NE5       30.16S
PLATTSMOUTH    CLOUDY    72  71  97 CALM      30.17R
$$

NEZ044-045-051>053-067-310600-
OMAHA AREA

CITY           SKY/WX    TMP DP  RH WIND       PRES   REMARKS
OMAHA EPPLEY   CLOUDY    73  70  90 NW3       30.16S
BLAIR          CLOUDY    72  68  89 N5        30.17S
FREMONT        MOCLDY    69  68  98 CALM      30.18S
MILLARD        CLOUDY   N/A N/A N/A CALM      30.16S
PLATTSMOUTH    CLOUDY    72  71  97 CALM      30.17R
WAHOO          CLOUDY    70  69  95 N6        30.17S
$$




USA.gov is the U.S. government's official web portal to all federal, state and local government web resources and services.